NDF9227 LGAV-EDDH

Flight info

Callsign NDF9227
Flight time 2h 53m
Altitude 32000
Route KOR1E KOR UL53 ELVAS DCT DIMIS DCT INLOT DCT RETRA DCT POD DCT NILKU DCT GUBOK DCT VEBAL DCT SASAL DCT PISAM DCT LALUK DCT MILGU DCT SOGMA M748 RARUP RARUP6A
Aircraft A320/M-SDE3FGHIRWY/LB1

Departure

Time 2026-05-05 18:12
Airport Athens Eleftherios Venizelos International Airport (LGAV)

Arrival

Time 2026-05-05 21:06
Airport Hamburg Helmut Schmidt Airport (EDDH)
Time Latitude Longitude Altitude Speed Heading
2026-05-05 17:38 37.93612 23.94838 284 ft 0 kts 308°
2026-05-05 17:41 37.93612 23.94839 284 ft 0 kts 308°
2026-05-05 18:02 37.93603 23.94854 287 ft 2 kts 310°
2026-05-05 18:02 37.93592 23.94870 286 ft 2 kts 308°
2026-05-05 18:03 37.93582 23.94886 285 ft 2 kts 305°
2026-05-05 18:03 37.93573 23.94903 290 ft 2 kts 303°
2026-05-05 18:03 37.93564 23.94921 286 ft 2 kts 285°
2026-05-05 18:03 37.93566 23.94937 286 ft 1 kts 214°
2026-05-05 18:04 37.93567 23.94938 286 ft 0 kts 219°
2026-05-05 18:08 37.93564 23.94935 286 ft 6 kts 219°
2026-05-05 18:08 37.93529 23.94899 283 ft 4 kts 218°
2026-05-05 18:08 37.93501 23.94875 284 ft 12 kts 207°
2026-05-05 18:08 37.93421 23.94912 284 ft 12 kts 128°
2026-05-05 18:09 37.93366 23.94984 284 ft 14 kts 159°
2026-05-05 18:09 37.93261 23.94910 287 ft 18 kts 219°
2026-05-05 18:09 37.93170 23.94823 287 ft 15 kts 216°
2026-05-05 18:09 37.93092 23.94751 290 ft 13 kts 216°
2026-05-05 18:10 37.93028 23.94687 289 ft 11 kts 219°
2026-05-05 18:10 37.92974 23.94635 290 ft 12 kts 216°
2026-05-05 18:10 37.92870 23.94542 289 ft 20 kts 215°
2026-05-05 18:10 37.92766 23.94440 292 ft 17 kts 217°
2026-05-05 18:11 37.92677 23.94356 293 ft 15 kts 216°
2026-05-05 18:11 37.92598 23.94289 292 ft 12 kts 199°
2026-05-05 18:11 37.92528 23.94342 296 ft 18 kts 128°
2026-05-05 18:11 37.92515 23.94478 296 ft 17 kts 40°
2026-05-05 18:12 37.92680 23.94629 293 ft 58 kts 37°
2026-05-05 18:12 37.93187 23.95114 285 ft 121 kts 37°
2026-05-05 18:12 37.93996 23.95867 416 ft 155 kts 35°
2026-05-05 18:12 37.94878 23.96661 1062 ft 159 kts 37°
2026-05-05 18:13 37.95773 23.97523 1690 ft 163 kts 38°
2026-05-05 18:13 37.96689 23.98417 2234 ft 173 kts 37°
2026-05-05 18:13 37.97700 23.99404 2445 ft 194 kts 37°
2026-05-05 18:13 37.98832 24.00505 2659 ft 216 kts 36°
2026-05-05 18:14 38.00097 24.01730 2930 ft 239 kts 36°
2026-05-05 18:14 38.01443 24.03025 3603 ft 245 kts 35°
2026-05-05 18:14 38.02809 24.04341 4357 ft 250 kts 34°
2026-05-05 18:14 38.04358 24.05366 4851 ft 259 kts 10°
2026-05-05 18:15 38.06144 24.05322 5579 ft 260 kts 342°
2026-05-05 18:15 38.07756 24.04288 6374 ft 261 kts 327°
2026-05-05 18:15 38.09269 24.02999 7126 ft 263 kts 326°
2026-05-05 18:15 38.10781 24.01668 7879 ft 265 kts 325°
2026-05-05 18:16 38.12292 24.00310 8629 ft 268 kts 322°
2026-05-05 18:16 38.13518 23.98523 9354 ft 274 kts 300°
2026-05-05 18:16 38.14049 23.96184 10044 ft 283 kts 275°
2026-05-05 18:16 38.13978 23.93595 10323 ft 305 kts 270°
2026-05-05 18:17 38.13824 23.90804 10469 ft 328 kts 269°
2026-05-05 18:17 38.13637 23.87823 10617 ft 349 kts 268°
2026-05-05 18:17 38.13434 23.84709 11058 ft 358 kts 268°
2026-05-05 18:17 38.13229 23.81538 11629 ft 362 kts 268°
2026-05-05 18:18 38.13029 23.78330 12219 ft 366 kts 269°
2026-05-05 18:18 38.12833 23.75084 12816 ft 371 kts 269°
2026-05-05 18:18 38.12638 23.71804 13384 ft 374 kts 269°
2026-05-05 18:18 38.12443 23.68488 13937 ft 379 kts 269°
2026-05-05 18:19 38.12244 23.65142 14458 ft 381 kts 269°
2026-05-05 18:19 38.12043 23.61770 15004 ft 384 kts 269°
2026-05-05 18:19 38.11840 23.58384 15558 ft 385 kts 269°
2026-05-05 18:19 38.11634 23.54980 16088 ft 388 kts 269°
2026-05-05 18:20 38.11423 23.51555 16646 ft 390 kts 269°
2026-05-05 18:20 38.11213 23.48115 17174 ft 392 kts 269°
2026-05-05 18:20 38.11003 23.44665 17703 ft 393 kts 269°
2026-05-05 18:20 38.10794 23.41231 18211 ft 395 kts 269°
2026-05-05 18:21 38.10583 23.37753 18684 ft 396 kts 269°
2026-05-05 18:21 38.10368 23.34260 19152 ft 398 kts 269°
2026-05-05 18:21 38.10148 23.30757 19584 ft 399 kts 269°
2026-05-05 18:21 38.09924 23.27236 20006 ft 401 kts 269°
2026-05-05 18:22 38.09698 23.23705 20473 ft 402 kts 269°
2026-05-05 18:22 38.09467 23.20165 20967 ft 403 kts 270°
2026-05-05 18:22 38.09234 23.16619 21401 ft 404 kts 270°
2026-05-05 18:22 38.09003 23.13051 21812 ft 406 kts 270°
2026-05-05 18:23 38.08773 23.09478 22204 ft 407 kts 270°
2026-05-05 18:23 38.08542 23.05889 22621 ft 409 kts 270°
2026-05-05 18:23 38.08307 23.02289 23002 ft 410 kts 270°
2026-05-05 18:23 38.08089 22.98676 23372 ft 410 kts 273°
2026-05-05 18:24 38.08395 22.95122 23713 ft 403 kts 289°
2026-05-05 18:24 38.09465 22.91860 24000 ft 399 kts 304°
2026-05-05 18:24 38.11203 22.89141 24305 ft 397 kts 318°
2026-05-05 18:24 38.13266 22.86802 24613 ft 398 kts 319°
2026-05-05 18:25 38.15343 22.84466 24934 ft 399 kts 319°
2026-05-05 18:25 38.16044 22.83678 25040 ft 400 kts 319°
2026-05-05 18:25 38.19515 22.79774 25568 ft 401 kts 319°
2026-05-05 18:25 38.21606 22.77416 25840 ft 403 kts 319°
2026-05-05 18:26 38.23704 22.75043 26132 ft 404 kts 319°
2026-05-05 18:26 38.25801 22.72663 26419 ft 405 kts 319°
2026-05-05 18:26 38.27905 22.70276 26703 ft 406 kts 319°
2026-05-05 18:26 38.30013 22.67883 26974 ft 407 kts 319°
2026-05-05 18:27 38.32126 22.65485 27251 ft 408 kts 319°
2026-05-05 18:27 38.34248 22.63078 27516 ft 409 kts 319°
2026-05-05 18:27 38.36373 22.60666 27776 ft 410 kts 319°
2026-05-05 18:27 38.38502 22.58246 28027 ft 410 kts 319°
2026-05-05 18:28 38.42767 22.53380 28539 ft 412 kts 319°
2026-05-05 18:28 38.44898 22.50945 28902 ft 410 kts 319°
2026-05-05 18:28 38.47023 22.48518 29272 ft 409 kts 319°
2026-05-05 18:29 38.49137 22.46104 29652 ft 407 kts 319°
2026-05-05 18:29 38.51238 22.43702 30010 ft 405 kts 318°
2026-05-05 18:29 38.53326 22.41310 30364 ft 402 kts 318°
2026-05-05 18:29 38.55402 22.38930 30703 ft 399 kts 318°
2026-05-05 18:30 38.57438 22.36596 31005 ft 398 kts 319°
2026-05-05 18:30 38.59499 22.34236 31275 ft 397 kts 319°
2026-05-05 18:30 38.61549 22.31884 31571 ft 396 kts 319°
2026-05-05 18:30 38.63597 22.29531 31860 ft 395 kts 319°
2026-05-05 18:31 38.65631 22.27191 32048 ft 393 kts 319°
2026-05-05 18:31 38.67659 22.24855 32076 ft 391 kts 318°
2026-05-05 18:31 38.71693 22.20194 32076 ft 390 kts 319°
2026-05-05 18:32 38.75724 22.15533 32082 ft 391 kts 318°
2026-05-05 18:32 38.79105 22.11617 32070 ft 391 kts 318°
2026-05-05 18:33 38.83124 22.06971 32078 ft 392 kts 318°
2026-05-05 18:33 38.87174 22.02282 32079 ft 392 kts 318°
2026-05-05 18:34 38.91217 21.97583 32078 ft 392 kts 318°
2026-05-05 18:34 38.95255 21.92887 32081 ft 392 kts 318°
2026-05-05 18:35 38.99300 21.88180 32078 ft 392 kts 318°
2026-05-05 18:35 39.03337 21.83466 32092 ft 392 kts 317°
2026-05-05 18:36 39.07371 21.78742 32082 ft 392 kts 317°
2026-05-05 18:36 39.11412 21.74016 32068 ft 393 kts 317°
2026-05-05 18:37 39.15454 21.69281 32068 ft 393 kts 317°
2026-05-05 18:37 39.19489 21.64528 32068 ft 393 kts 317°
2026-05-05 18:38 39.23506 21.59798 32056 ft 393 kts 317°
2026-05-05 18:38 39.27578 21.55005 32060 ft 394 kts 317°
2026-05-05 18:39 39.31616 21.50239 32084 ft 394 kts 317°
2026-05-05 18:39 39.35634 21.45492 32093 ft 394 kts 317°
2026-05-05 18:40 39.39670 21.40719 32086 ft 393 kts 317°
2026-05-05 18:40 39.43702 21.35945 32102 ft 393 kts 317°
2026-05-05 18:41 39.47729 21.31156 32099 ft 393 kts 317°
2026-05-05 18:41 39.51748 21.26367 32113 ft 393 kts 317°
2026-05-05 18:42 39.55768 21.21567 32106 ft 393 kts 317°
2026-05-05 18:42 39.59787 21.16774 32124 ft 393 kts 316°
2026-05-05 18:43 39.63799 21.11972 32107 ft 392 kts 316°
2026-05-05 18:43 39.67812 21.07162 32101 ft 394 kts 316°
2026-05-05 18:44 39.71837 21.02326 32097 ft 394 kts 316°
2026-05-05 18:44 39.75864 20.97491 32101 ft 395 kts 316°
2026-05-05 18:45 39.79891 20.92645 32107 ft 394 kts 316°
2026-05-05 18:45 39.83921 20.87788 32110 ft 394 kts 316°
2026-05-05 18:46 39.87922 20.82955 32119 ft 395 kts 316°
2026-05-05 18:46 39.91941 20.78088 32110 ft 395 kts 315°
2026-05-05 18:47 39.95961 20.73208 32113 ft 395 kts 315°
2026-05-05 18:47 39.99979 20.68327 32108 ft 395 kts 315°
2026-05-05 18:48 40.03999 20.63449 32110 ft 395 kts 316°
2026-05-05 18:48 40.08289 20.58983 32113 ft 398 kts 328°
2026-05-05 18:49 40.13334 20.55939 32119 ft 400 kts 332°
2026-05-05 18:49 40.18419 20.52993 32114 ft 400 kts 332°
2026-05-05 18:50 40.23505 20.50037 32114 ft 400 kts 332°
2026-05-05 18:50 40.28582 20.47078 32105 ft 399 kts 332°
2026-05-05 18:51 40.33622 20.44124 32095 ft 400 kts 332°
2026-05-05 18:51 40.38714 20.41142 32096 ft 401 kts 332°
2026-05-05 18:52 40.43826 20.38146 32091 ft 402 kts 331°
2026-05-05 18:52 40.48950 20.35146 32095 ft 403 kts 332°
2026-05-05 18:53 40.54078 20.32140 32099 ft 404 kts 332°
2026-05-05 18:53 40.59200 20.29113 32106 ft 403 kts 331°
2026-05-05 18:54 40.64283 20.26097 32105 ft 404 kts 331°
2026-05-05 18:54 40.69415 20.23061 32097 ft 404 kts 331°
2026-05-05 18:55 40.74552 20.20025 32098 ft 405 kts 331°
2026-05-05 18:55 40.79696 20.16973 32096 ft 405 kts 331°
2026-05-05 18:56 40.84837 20.13910 32098 ft 405 kts 331°
2026-05-05 18:56 40.89982 20.10838 32086 ft 406 kts 331°
2026-05-05 18:57 40.95149 20.07761 32088 ft 408 kts 331°
2026-05-05 18:57 41.00292 20.04691 32085 ft 408 kts 331°
2026-05-05 18:58 41.05472 20.01591 32089 ft 409 kts 331°
2026-05-05 18:58 41.10651 19.98485 32093 ft 409 kts 331°
2026-05-05 18:59 41.15841 19.95370 32093 ft 409 kts 331°
2026-05-05 18:59 41.21028 19.92256 32095 ft 409 kts 331°
2026-05-05 19:00 41.26212 19.89135 32093 ft 409 kts 331°
2026-05-05 19:00 41.31398 19.86000 32096 ft 410 kts 331°
2026-05-05 19:01 41.36589 19.82862 32097 ft 410 kts 331°
2026-05-05 19:01 41.41788 19.79709 32087 ft 411 kts 330°
2026-05-05 19:02 41.46996 19.76544 32089 ft 411 kts 330°
2026-05-05 19:02 41.52181 19.73406 32088 ft 412 kts 331°
2026-05-05 19:03 41.57404 19.70222 32082 ft 413 kts 331°
2026-05-05 19:03 41.62642 19.67020 32081 ft 414 kts 331°
2026-05-05 19:04 41.67883 19.63813 32078 ft 414 kts 331°
2026-05-05 19:04 41.73132 19.60600 32096 ft 415 kts 331°
2026-05-05 19:05 41.78388 19.57376 32086 ft 416 kts 331°
2026-05-05 19:05 41.83649 19.54139 32078 ft 416 kts 331°
2026-05-05 19:06 41.88921 19.50897 32074 ft 417 kts 331°
2026-05-05 19:06 41.94196 19.47646 32074 ft 417 kts 331°
2026-05-05 19:07 41.99550 19.44554 32052 ft 422 kts 336°
2026-05-05 19:07 42.05091 19.41934 32064 ft 423 kts 336°
2026-05-05 19:08 42.10621 19.39321 32066 ft 424 kts 336°
2026-05-05 19:08 42.16183 19.36676 32060 ft 424 kts 336°
2026-05-05 19:09 42.21750 19.34014 32059 ft 425 kts 336°
2026-05-05 19:09 42.27324 19.31288 32061 ft 426 kts 335°
2026-05-05 19:10 42.32876 19.28433 32069 ft 427 kts 335°
2026-05-05 19:10 42.38432 19.25562 32080 ft 428 kts 335°
2026-05-05 19:11 42.43954 19.22550 32061 ft 428 kts 333°
2026-05-05 19:11 42.49440 19.19361 32061 ft 430 kts 333°
2026-05-05 19:12 42.54937 19.16156 32063 ft 430 kts 333°
2026-05-05 19:12 42.60454 19.12989 32073 ft 431 kts 333°
2026-05-05 19:13 42.65988 19.09838 32060 ft 432 kts 333°
2026-05-05 19:13 42.71543 19.06671 32062 ft 433 kts 333°
2026-05-05 19:14 42.77095 19.03479 32063 ft 433 kts 333°
2026-05-05 19:14 42.82615 19.00290 32072 ft 434 kts 333°
2026-05-05 19:15 42.88178 18.97076 32066 ft 434 kts 333°
2026-05-05 19:15 42.93746 18.93856 32064 ft 435 kts 333°
2026-05-05 19:16 42.99317 18.90623 32060 ft 435 kts 333°
2026-05-05 19:16 43.04892 18.87381 32061 ft 436 kts 333°
2026-05-05 19:17 43.10484 18.84125 32058 ft 437 kts 333°
2026-05-05 19:17 43.16087 18.80868 32048 ft 437 kts 333°
2026-05-05 19:18 43.21661 18.77620 32050 ft 438 kts 333°
2026-05-05 19:18 43.27266 18.74333 32053 ft 438 kts 333°
2026-05-05 19:19 43.32879 18.71039 32060 ft 438 kts 333°
2026-05-05 19:19 43.38543 18.67902 32068 ft 440 kts 336°
2026-05-05 19:20 43.43352 18.65619 32070 ft 440 kts 338°
2026-05-05 19:20 43.49179 18.62968 32069 ft 441 kts 338°
2026-05-05 19:21 43.55926 18.59794 32062 ft 441 kts 337°
2026-05-05 19:21 43.61715 18.56981 32055 ft 441 kts 336°
2026-05-05 19:22 43.66520 18.54629 32067 ft 441 kts 337°
2026-05-05 19:22 43.72317 18.51805 32049 ft 441 kts 336°
2026-05-05 19:23 43.78123 18.48982 32049 ft 442 kts 337°
2026-05-05 19:23 43.83919 18.46174 32045 ft 442 kts 336°
2026-05-05 19:24 43.89728 18.43354 32052 ft 442 kts 337°
2026-05-05 19:24 43.95539 18.40513 32037 ft 443 kts 337°
2026-05-05 19:25 44.01322 18.37684 32038 ft 444 kts 337°
2026-05-05 19:25 44.07153 18.34819 32026 ft 445 kts 337°
2026-05-05 19:26 44.12998 18.31944 32015 ft 446 kts 337°
2026-05-05 19:26 44.18859 18.29057 32010 ft 447 kts 337°
2026-05-05 19:27 44.24726 18.26160 32002 ft 448 kts 337°
2026-05-05 19:27 44.30601 18.23250 31999 ft 448 kts 337°
2026-05-05 19:28 44.36493 18.20328 31999 ft 449 kts 337°
2026-05-05 19:28 44.42377 18.17405 31988 ft 449 kts 337°
2026-05-05 19:29 44.45330 18.15933 32114 ft 451 kts 337°
2026-05-05 19:29 44.48284 18.14461 32416 ft 450 kts 337°
2026-05-05 19:29 44.51228 18.12994 32759 ft 448 kts 336°
2026-05-05 19:29 44.54160 18.11536 33082 ft 447 kts 336°
2026-05-05 19:30 44.57083 18.10082 33401 ft 445 kts 336°
2026-05-05 19:30 44.59993 18.08630 33724 ft 443 kts 336°
2026-05-05 19:30 44.62897 18.07174 33963 ft 442 kts 336°
2026-05-05 19:30 44.65749 18.05739 33982 ft 441 kts 336°
2026-05-05 19:31 44.71509 18.02841 33884 ft 437 kts 336°
2026-05-05 19:31 44.74369 18.01402 33112 ft 438 kts 336°
2026-05-05 19:31 44.77256 17.99946 32325 ft 443 kts 336°
2026-05-05 19:32 44.80176 17.98475 32053 ft 448 kts 337°
2026-05-05 19:32 44.83127 17.96987 31941 ft 451 kts 337°
2026-05-05 19:32 44.89048 17.93998 31976 ft 453 kts 337°
2026-05-05 19:33 44.94983 17.90991 31974 ft 453 kts 336°
2026-05-05 19:33 45.00929 17.87969 31967 ft 454 kts 336°
2026-05-05 19:34 45.06868 17.84885 31968 ft 455 kts 335°
2026-05-05 19:35 45.15612 17.79710 31967 ft 453 kts 333°
2026-05-05 19:35 45.21418 17.76184 31962 ft 454 kts 333°
2026-05-05 19:36 45.27257 17.72722 31954 ft 455 kts 334°
2026-05-05 19:36 45.33116 17.69291 31952 ft 456 kts 334°
2026-05-05 19:37 45.38937 17.65859 31959 ft 455 kts 334°
2026-05-05 19:37 45.44773 17.62386 31963 ft 455 kts 334°
2026-05-05 19:38 45.50614 17.58902 31961 ft 454 kts 334°
2026-05-05 19:38 45.56438 17.55411 31959 ft 454 kts 334°
2026-05-05 19:39 45.62261 17.51923 31961 ft 454 kts 334°
2026-05-05 19:39 45.68089 17.48437 31952 ft 454 kts 334°
2026-05-05 19:40 45.73918 17.44943 31955 ft 454 kts 334°
2026-05-05 19:40 45.79742 17.41418 31950 ft 454 kts 334°
2026-05-05 19:41 45.85562 17.37894 31953 ft 454 kts 334°
2026-05-05 19:41 45.91346 17.34387 31941 ft 454 kts 334°
2026-05-05 19:42 45.97175 17.30856 31942 ft 455 kts 334°
2026-05-05 19:42 46.03011 17.27301 31940 ft 455 kts 334°
2026-05-05 19:43 46.08822 17.23684 31946 ft 455 kts 334°
2026-05-05 19:43 46.14631 17.20040 31937 ft 456 kts 334°
2026-05-05 19:44 46.20411 17.16428 31932 ft 456 kts 334°
2026-05-05 19:44 46.26243 17.12785 31930 ft 456 kts 334°
2026-05-05 19:45 46.32068 17.09144 31930 ft 456 kts 334°
2026-05-05 19:45 46.37900 17.05487 31926 ft 457 kts 334°
2026-05-05 19:46 46.43736 17.01811 31922 ft 458 kts 334°
2026-05-05 19:46 46.49584 16.98111 31922 ft 458 kts 334°
2026-05-05 19:47 46.55424 16.94411 31927 ft 458 kts 333°
2026-05-05 19:47 46.61270 16.90710 31923 ft 458 kts 333°
2026-05-05 19:48 46.67074 16.87019 31906 ft 459 kts 333°
2026-05-05 19:48 46.72923 16.83296 31905 ft 459 kts 333°
2026-05-05 19:49 46.78768 16.79558 31901 ft 459 kts 333°
2026-05-05 19:49 46.84612 16.75819 31892 ft 459 kts 333°
2026-05-05 19:50 46.90461 16.72074 31882 ft 459 kts 333°
2026-05-05 19:50 46.96305 16.68303 31876 ft 459 kts 333°
2026-05-05 19:51 47.02151 16.64532 31875 ft 459 kts 333°
2026-05-05 19:51 47.08000 16.60758 31870 ft 459 kts 334°
2026-05-05 19:52 47.13847 16.56966 31858 ft 459 kts 333°
2026-05-05 19:52 47.19694 16.53165 31849 ft 460 kts 333°
2026-05-05 19:53 47.25542 16.49357 31851 ft 460 kts 333°
2026-05-05 19:53 47.31354 16.45570 31832 ft 460 kts 332°
2026-05-05 19:54 47.37198 16.41735 31833 ft 460 kts 333°
2026-05-05 19:54 47.43047 16.37897 31823 ft 460 kts 333°
2026-05-05 19:55 47.48887 16.34048 31809 ft 460 kts 332°
2026-05-05 19:55 47.54731 16.30192 31808 ft 460 kts 332°
2026-05-05 19:56 47.60572 16.26332 31789 ft 459 kts 332°
2026-05-05 19:56 47.66382 16.22485 31784 ft 459 kts 332°
2026-05-05 19:57 47.72212 16.18611 31772 ft 459 kts 333°
2026-05-05 19:57 47.78050 16.14727 31765 ft 459 kts 334°
2026-05-05 19:58 47.83873 16.10839 31766 ft 459 kts 333°
2026-05-05 19:58 47.89688 16.06942 31757 ft 458 kts 333°
2026-05-05 19:59 47.95501 16.03036 31755 ft 458 kts 332°
2026-05-05 19:59 48.01317 15.99118 31732 ft 458 kts 333°
2026-05-05 20:00 48.07141 15.95202 31719 ft 459 kts 332°
2026-05-05 20:00 48.12926 15.91302 31727 ft 459 kts 333°
2026-05-05 20:01 48.18740 15.87355 31711 ft 459 kts 333°
2026-05-05 20:01 48.24561 15.83391 31710 ft 459 kts 333°
2026-05-05 20:02 48.30384 15.79422 31695 ft 460 kts 333°
2026-05-05 20:02 48.36214 15.75444 31693 ft 460 kts 333°
2026-05-05 20:03 48.42048 15.71451 31696 ft 460 kts 333°
2026-05-05 20:03 48.47883 15.67442 31705 ft 461 kts 333°
2026-05-05 20:04 48.53718 15.63427 31689 ft 461 kts 333°
2026-05-05 20:04 48.59545 15.59407 31695 ft 461 kts 333°
2026-05-05 20:05 48.65341 15.55400 31694 ft 461 kts 333°
2026-05-05 20:05 48.71170 15.51354 31701 ft 460 kts 332°
2026-05-05 20:06 48.76985 15.47311 31711 ft 460 kts 332°
2026-05-05 20:06 48.82804 15.43264 31692 ft 460 kts 333°
2026-05-05 20:07 48.88625 15.39194 31691 ft 461 kts 333°
2026-05-05 20:07 48.94409 15.34982 31690 ft 461 kts 331°
2026-05-05 20:08 49.00128 15.30591 31699 ft 460 kts 330°
2026-05-05 20:08 49.05842 15.26174 31707 ft 460 kts 330°
2026-05-05 20:09 49.11564 15.21804 31706 ft 460 kts 331°
2026-05-05 20:09 49.17299 15.17453 31719 ft 460 kts 331°
2026-05-05 20:10 49.23000 15.13110 31715 ft 460 kts 331°
2026-05-05 20:10 49.28732 15.08721 31721 ft 460 kts 331°
2026-05-05 20:11 49.34459 15.04322 31725 ft 460 kts 331°
2026-05-05 20:11 49.40182 14.99898 31724 ft 460 kts 331°
2026-05-05 20:12 49.44931 14.96227 31730 ft 460 kts 331°
2026-05-05 20:12 49.50652 14.91800 31745 ft 460 kts 330°
2026-05-05 20:13 49.56374 14.87370 31734 ft 460 kts 331°
2026-05-05 20:13 49.62091 14.82929 31728 ft 460 kts 330°
2026-05-05 20:14 49.67807 14.78453 31727 ft 460 kts 330°
2026-05-05 20:14 49.73484 14.74005 31731 ft 460 kts 330°
2026-05-05 20:15 49.79201 14.69521 31731 ft 460 kts 330°
2026-05-05 20:15 49.84908 14.65027 31731 ft 460 kts 330°
2026-05-05 20:16 49.90613 14.60519 31732 ft 461 kts 330°
2026-05-05 20:16 49.96330 14.55998 31746 ft 461 kts 330°
2026-05-05 20:17 50.02014 14.51495 31746 ft 461 kts 330°
2026-05-05 20:17 50.07727 14.46952 31746 ft 461 kts 330°
2026-05-05 20:18 50.13438 14.42396 31743 ft 461 kts 330°
2026-05-05 20:18 50.19147 14.37835 31742 ft 461 kts 330°
2026-05-05 20:19 50.24860 14.33257 31743 ft 462 kts 329°
2026-05-05 20:19 50.30589 14.28656 31733 ft 463 kts 329°
2026-05-05 20:20 50.36313 14.24036 31735 ft 463 kts 329°
2026-05-05 20:20 50.42047 14.19394 31737 ft 464 kts 329°
2026-05-05 20:21 50.47779 14.14744 31762 ft 464 kts 329°
2026-05-05 20:21 50.53517 14.10082 31762 ft 464 kts 329°
2026-05-05 20:22 50.59247 14.05424 31768 ft 464 kts 329°
2026-05-05 20:22 50.64991 14.00735 31757 ft 465 kts 329°
2026-05-05 20:23 50.70702 13.96043 31759 ft 466 kts 329°
2026-05-05 20:23 50.76451 13.91300 31776 ft 466 kts 329°
2026-05-05 20:24 50.81795 13.85714 31796 ft 457 kts 314°
2026-05-05 20:24 50.86267 13.78620 31800 ft 455 kts 310°
2026-05-05 20:25 50.90695 13.71454 31796 ft 454 kts 310°
2026-05-05 20:25 50.95120 13.64269 31797 ft 454 kts 310°
2026-05-05 20:26 50.99506 13.57120 31799 ft 455 kts 310°
2026-05-05 20:26 51.03914 13.49927 31807 ft 454 kts 310°
2026-05-05 20:27 51.08320 13.42717 31809 ft 453 kts 310°
2026-05-05 20:27 51.12701 13.35518 31807 ft 452 kts 310°
2026-05-05 20:28 51.17054 13.28353 31786 ft 452 kts 310°
2026-05-05 20:28 51.21438 13.21111 31777 ft 453 kts 310°
2026-05-05 20:29 51.25811 13.13870 31778 ft 453 kts 310°
2026-05-05 20:29 51.30186 13.06600 31777 ft 454 kts 309°
2026-05-05 20:30 51.34528 12.99361 31812 ft 453 kts 309°
2026-05-05 20:30 51.38888 12.92052 31799 ft 453 kts 309°
2026-05-05 20:31 51.43251 12.84731 31795 ft 454 kts 309°
2026-05-05 20:31 51.47611 12.77417 31790 ft 454 kts 309°
2026-05-05 20:32 51.51938 12.70131 31791 ft 454 kts 309°
2026-05-05 20:32 51.56290 12.62757 31795 ft 455 kts 309°
2026-05-05 20:33 51.60645 12.55362 31799 ft 456 kts 309°
2026-05-05 20:33 51.65002 12.47953 31812 ft 455 kts 308°
2026-05-05 20:34 51.69356 12.40530 31819 ft 455 kts 308°
2026-05-05 20:34 51.73695 12.33103 31820 ft 455 kts 308°
2026-05-05 20:35 51.77943 12.25804 31824 ft 454 kts 308°
2026-05-05 20:35 51.82328 12.18243 31819 ft 455 kts 308°
2026-05-05 20:36 51.86657 12.10756 31815 ft 456 kts 308°
2026-05-05 20:36 51.90996 12.03226 31825 ft 457 kts 308°
2026-05-05 20:37 51.95323 11.95701 31838 ft 456 kts 308°
2026-05-05 20:37 51.99645 11.88169 31846 ft 455 kts 308°
2026-05-05 20:38 52.03936 11.80688 31856 ft 455 kts 308°
2026-05-05 20:38 52.08253 11.73129 31840 ft 456 kts 308°
2026-05-05 20:39 52.12524 11.65628 31846 ft 456 kts 308°
2026-05-05 20:39 52.16822 11.58025 31846 ft 456 kts 307°
2026-05-05 20:40 52.21113 11.50412 31863 ft 456 kts 307°
2026-05-05 20:40 52.25375 11.42860 31526 ft 454 kts 307°
2026-05-05 20:40 52.27516 11.39055 31024 ft 455 kts 308°
2026-05-05 20:41 52.29658 11.35240 30538 ft 456 kts 308°
2026-05-05 20:41 52.31800 11.31412 30051 ft 457 kts 308°
2026-05-05 20:41 52.33947 11.27565 29506 ft 459 kts 308°
2026-05-05 20:41 52.36107 11.23688 28942 ft 460 kts 308°
2026-05-05 20:42 52.38263 11.19818 28391 ft 461 kts 308°
2026-05-05 20:42 52.40432 11.15922 27847 ft 463 kts 308°
2026-05-05 20:42 52.42603 11.12019 27319 ft 464 kts 308°
2026-05-05 20:42 52.44781 11.08099 26802 ft 466 kts 308°
2026-05-05 20:43 52.46969 11.04156 26289 ft 467 kts 308°
2026-05-05 20:43 52.49158 11.00203 25796 ft 469 kts 308°
2026-05-05 20:43 52.51354 10.96227 25311 ft 470 kts 308°
2026-05-05 20:43 52.53519 10.92298 24835 ft 469 kts 308°
2026-05-05 20:44 52.55706 10.88329 24361 ft 467 kts 308°
2026-05-05 20:44 52.57882 10.84381 23892 ft 464 kts 309°
2026-05-05 20:44 52.60040 10.80457 23425 ft 461 kts 309°
2026-05-05 20:44 52.62187 10.76543 22877 ft 458 kts 309°
2026-05-05 20:45 52.66424 10.68790 22115 ft 453 kts 309°
2026-05-05 20:45 52.68529 10.64923 21853 ft 452 kts 309°
2026-05-05 20:45 52.70625 10.61067 21590 ft 450 kts 309°
2026-05-05 20:46 52.72706 10.57228 21340 ft 448 kts 309°
2026-05-05 20:46 52.74764 10.53437 21086 ft 447 kts 309°
2026-05-05 20:46 52.76830 10.49629 20832 ft 445 kts 309°
2026-05-05 20:46 52.78895 10.45819 20582 ft 444 kts 309°
2026-05-05 20:47 52.80949 10.42016 20339 ft 442 kts 309°
2026-05-05 20:47 52.82995 10.38220 20089 ft 440 kts 310°
2026-05-05 20:47 52.85030 10.34438 19841 ft 439 kts 310°
2026-05-05 20:47 52.87045 10.30692 19601 ft 438 kts 310°
2026-05-05 20:48 52.89066 10.26932 19358 ft 437 kts 310°
2026-05-05 20:48 52.91086 10.23167 19066 ft 434 kts 310°
2026-05-05 20:48 52.93088 10.19427 18313 ft 433 kts 310°
2026-05-05 20:48 52.95080 10.15703 17519 ft 431 kts 310°
2026-05-05 20:49 52.97061 10.11993 16789 ft 427 kts 310°
2026-05-05 20:49 52.99024 10.08316 16087 ft 424 kts 310°
2026-05-05 20:49 53.00950 10.04696 15419 ft 420 kts 310°
2026-05-05 20:49 53.02915 10.01168 15044 ft 413 kts 317°
2026-05-05 20:50 53.05305 9.98564 14804 ft 411 kts 333°
2026-05-05 20:50 53.07021 9.97218 14645 ft 411 kts 334°
2026-05-05 20:50 53.10501 9.94581 14322 ft 409 kts 334°
2026-05-05 20:50 53.13095 9.92630 14084 ft 408 kts 334°
2026-05-05 20:51 53.15647 9.90706 13854 ft 406 kts 334°
2026-05-05 20:51 53.18216 9.88765 13607 ft 405 kts 334°
2026-05-05 20:51 53.20774 9.86811 13341 ft 403 kts 335°
2026-05-05 20:51 53.23322 9.84884 13074 ft 401 kts 335°
2026-05-05 20:52 53.25868 9.82967 12812 ft 400 kts 334°
2026-05-05 20:52 53.28405 9.81063 12552 ft 398 kts 334°
2026-05-05 20:52 53.30949 9.79266 12285 ft 397 kts 341°
2026-05-05 20:52 53.33658 9.78302 12037 ft 397 kts 349°
2026-05-05 20:53 53.36378 9.77510 11788 ft 394 kts 349°
2026-05-05 20:53 53.39050 9.76746 11538 ft 393 kts 349°
2026-05-05 20:53 53.41755 9.75978 11286 ft 391 kts 349°
2026-05-05 20:53 53.44432 9.75218 11023 ft 389 kts 349°
2026-05-05 20:54 53.47066 9.74472 10776 ft 388 kts 349°
2026-05-05 20:54 53.49726 9.73717 10529 ft 385 kts 349°
2026-05-05 20:54 53.52322 9.72976 10283 ft 371 kts 349°
2026-05-05 20:54 53.54823 9.72261 10042 ft 358 kts 349°
2026-05-05 20:55 53.57237 9.71570 9860 ft 344 kts 348°
2026-05-05 20:55 53.59517 9.70918 9729 ft 319 kts 348°
2026-05-05 20:55 53.61624 9.70314 9602 ft 297 kts 348°
2026-05-05 20:55 53.63635 9.69733 9470 ft 291 kts 348°
2026-05-05 20:56 53.65610 9.69159 9341 ft 289 kts 348°
2026-05-05 20:56 53.67587 9.68585 9214 ft 288 kts 348°
2026-05-05 20:56 53.69561 9.68009 9080 ft 287 kts 348°
2026-05-05 20:56 53.71531 9.67437 8949 ft 286 kts 348°
2026-05-05 20:57 53.73501 9.66866 8819 ft 286 kts 348°
2026-05-05 20:57 53.75435 9.66303 8692 ft 285 kts 348°
2026-05-05 20:57 53.77388 9.65731 8488 ft 285 kts 348°
2026-05-05 20:57 53.79342 9.65163 8074 ft 284 kts 348°
2026-05-05 20:58 53.81293 9.64598 7655 ft 284 kts 349°
2026-05-05 20:58 53.83237 9.64032 7270 ft 282 kts 348°
2026-05-05 20:58 53.85166 9.63471 6873 ft 281 kts 349°
2026-05-05 20:58 53.86437 9.63103 6686 ft 278 kts 350°
2026-05-05 20:59 53.88351 9.63167 6297 ft 278 kts 18°
2026-05-05 20:59 53.90263 9.65838 5892 ft 271 kts 63°
2026-05-05 20:59 53.90661 9.68845 5771 ft 258 kts 88°
2026-05-05 20:59 53.90655 9.71828 5633 ft 247 kts 97°
2026-05-05 21:00 53.90387 9.73672 5504 ft 242 kts 111°
2026-05-05 21:00 53.89512 9.76069 5223 ft 239 kts 131°
2026-05-05 21:00 53.87654 9.78208 4535 ft 243 kts 152°
2026-05-05 21:00 53.86190 9.79457 4356 ft 231 kts 151°
2026-05-05 21:01 53.85219 9.80304 4276 ft 230 kts 150°
2026-05-05 21:01 53.83837 9.81513 4138 ft 223 kts 150°
2026-05-05 21:01 53.82459 9.82718 3870 ft 223 kts 150°
2026-05-05 21:01 53.81079 9.83924 3569 ft 223 kts 150°
2026-05-05 21:02 53.79693 9.85134 3269 ft 224 kts 150°
2026-05-05 21:02 53.78304 9.86345 2960 ft 225 kts 150°
2026-05-05 21:02 53.76921 9.87550 2645 ft 226 kts 149°
2026-05-05 21:02 53.75528 9.88762 2339 ft 222 kts 149°
2026-05-05 21:03 53.74164 9.89947 2034 ft 215 kts 149°
2026-05-05 21:03 53.72869 9.91071 1754 ft 202 kts 149°
2026-05-05 21:03 53.71695 9.92089 1504 ft 182 kts 148°
2026-05-05 21:03 53.70625 9.93017 1256 ft 164 kts 148°
2026-05-05 21:04 53.69650 9.93874 989 ft 152 kts 148°
2026-05-05 21:04 53.68746 9.94698 719 ft 145 kts 149°
2026-05-05 21:04 53.67852 9.95449 531 ft 143 kts 150°
2026-05-05 21:04 53.66956 9.96198 373 ft 143 kts 149°
2026-05-05 21:05 53.66070 9.96973 226 ft 142 kts 149°
2026-05-05 21:05 53.65214 9.97721 95 ft 141 kts 149°
2026-05-05 21:05 53.64402 9.98424 55 ft 114 kts 153°
2026-05-05 21:05 53.63849 9.98896 49 ft 64 kts 152°
2026-05-05 21:06 53.63510 9.99196 47 ft 51 kts 152°
2026-05-05 21:06 53.63297 9.99354 47 ft 25 kts 171°
2026-05-05 21:06 53.63122 9.99308 47 ft 26 kts 194°
2026-05-05 21:06 53.62957 9.99354 47 ft 25 kts 152°
2026-05-05 21:07 53.62808 9.99483 47 ft 24 kts 152°
2026-05-05 21:07 53.62676 9.99603 47 ft 20 kts 153°
2026-05-05 21:07 53.62646 9.99782 46 ft 18 kts 68°
2026-05-05 21:07 53.62749 9.99914 46 ft 19 kts 29°
2026-05-05 21:08 53.62862 10.00031 47 ft 19 kts 39°
2026-05-05 21:08 53.62974 10.00162 48 ft 20 kts 33°
2026-05-05 21:08 53.63097 10.00261 48 ft 20 kts
2026-05-05 21:08 53.63214 10.00247 48 ft 9 kts 355°
2026-05-05 21:09 53.63242 10.00301 48 ft 7 kts 79°
2026-05-05 21:09 53.63245 10.00370 48 ft 1 kts 86°
2026-05-05 21:09 53.63245 10.00372 48 ft 0 kts 86°